This demonstration page uses our WeatherBlox Daily Observations layout. Learn more.

Left ArrowRight Arrow

39.08367, -84.50855

Hourly Observations for April 11, 2021

Temp ( °F °C ) Dew Point ( °F °C ) Humidity (%) Winds ( mph kmh ) Pressure ( in mb ) Visibility ( mi km ) Precip ( " mm )
12:53 am 00:53 Clear 54 12.2 49 9.4 83 83 SSW 7 11 29.5 999 10 16.0934 0 0
1:53 am 01:53 Clear 51 10.6 46 7.8 83 83 SSW 8 13 29.48 998 10 16.0934 0 0
2:53 am 02:53 Clear 54 12.2 44 6.7 69 69 SW 12 19 29.47 998 10 16.0934 0 0
3:53 am 03:53 Clear 51 10.6 44 6.7 77 77 SSW 10 17 29.47 998 10 16.0934 0 0
4:53 am 04:53 Clear 50 10 43 6.1 77 77 SSW 12 19 29.47 998 10 16.0934 0 0
5:53 am 05:53 Mostly Cloudy 51 10.6 42 5.6 71 71 SSW 15 24 29.47 998 10 16.0934 0 0
6:53 am 06:53 Cloudy 51 10.6 43 6.1 74 74 S 12 19 29.47 998 10 16.0934 0 0
7:53 am 07:53 Cloudy with Light Rain 51 10.6 43 6.1 74 74 S 14 22 29.47 998 10 16.0934 0.001 0.001
8:53 am 08:53 Cloudy with Light Rain 51 10.6 46 7.8 83 83 S 14 22 29.47 998 10 16.0934 0.01 0.254
9:53 am 09:53 Cloudy with Light Rain 51 10.6 46 7.8 83 83 SSW 16 26 29.47 998 8 12.87472 0.001 0.001
10:53 am 10:53 Cloudy 53 11.7 46 7.8 77 77 S 16 26 29.46 998 10 16.0934 0.001 0.001
11:53 am 11:53 Cloudy 52 11.1 46 7.8 80 80 SSW 15 24 29.47 998 10 16.0934 0 0
12:53 pm 12:53 Cloudy with Light Rain 51 10.6 46 7.8 83 83 WSW 16 26 29.48 998 3 4.82802 0.07 1.778
1:53 pm 13:53 Cloudy with Light Rain 52 11.1 48 8.9 86 86 SSW 13 20 29.49 999 10 16.0934 0.01 0.254
2:53 pm 14:53 Cloudy with Light Rain 52 11.1 48 8.9 86 86 SSW 15 24 29.5 999 4 6.43736 0.01 0.254
3:53 pm 15:53 Cloudy with Light Rain 52 11.1 48 8.9 86 86 SW 16 26 29.5 999 4 6.43736 0.001 0.001
4:00 pm 16:00 Cloudy 52 11.1 47 8.3 83 83 SW 16 26 29.52 999 10 16.0934 0.001 0.001
4:53 pm 16:53 Cloudy 54 12.2 48 8.9 80 80 SW 14 22 29.51 999 10 16.0934 0.001 0.001
5:53 pm 17:53 Cloudy 53 11.7 47 8.3 80 80 SW 16 26 29.53 1000 10 16.0934 0 0
6:36 pm 18:36 Cloudy 53 11.7 45 7.2 74 74 SW 14 22 29.54 1000 10 16.0934 0 0
6:53 pm 18:53 Cloudy 53 11.7 45 7.2 74 74 SW 13 20 29.54 1000 10 16.0934 0 0
7:53 pm 19:53 Cloudy 51 10.6 45 7.2 80 80 SW 10 17 29.56 1001 10 16.0934 0 0
8:15 pm 20:15 Cloudy 50 10 45 7.2 83 83 SSW 10 17 29.58 1002 10 16.0934 0 0
8:25 pm 20:25 Cloudy 50 10 45 7.2 83 83 SSW 10 17 29.58 1002 10 16.0934 0 0
8:53 pm 20:53 Cloudy with Light Rain 50 10 45 7.2 83 83 SW 9 15 29.59 1002 10 16.0934 0.001 0.001
9:00 pm 21:00 Cloudy with Light Rain 50 10 45 7.2 83 83 SW 8 13 29.6 1002 10 16.0934 0.001 0.001
9:53 pm 21:53 Cloudy 50 10 46 7.8 86 86 SW 9 15 29.61 1003 10 16.0934 0.001 0.001
10:00 pm 22:00 Cloudy 50 10 46 7.8 86 86 SW 8 13 29.62 1003 10 16.0934 0 0
10:53 pm 22:53 Cloudy 50 10 46 7.8 86 86 SW 8 13 29.62 1003 10 16.0934 0.001 0.001
11:00 pm 23:00 Cloudy 50 10 46 7.8 86 86 SW 8 13 29.63 1003 10 16.0934 0 0
11:44 pm 23:44 Cloudy 50 10 46 7.8 86 86 WSW 7 11 29.63 1003 10 16.0934 0 0
11:53 pm 23:53 Cloudy 50 10 46 7.8 86 86 VRB 6 9 29.62 1003 10 16.0934 0 0

Powered by AerisWeather